Location: Dunedin
(45.8670°S, 170.5000°E)
Time: 02:39:33
(UTC+13:00)

ISS - Pass Details

Date: 28 January 2019
Orbit: 403 x 411 km, 51.6° (Epoch: 16 February)

Event Time Altitude Azimuth Distance (km) Brightness Sun altitude
Exits shadow 05:31:45 - 358° (N) 2,123 -0.6 -8.6°
Reaches altitude 10° 05:34:24 10° 29° (NNE) 1,485 -1.1 -8.3°
Maximum altitude 05:35:30 11° 48° (NE) 1,413 -0.9 -8.1°
Drops below altitude 10° 05:36:35 10° 67° (ENE) 1,490 -0.5 -8.0°
Sets 05:39:55 0° 103° (ESE) 2,360 1.5 -7.5°
